Regional Weather Roundup
Issued by NWS San Angelo, TX

Home | Current Version | Previous Version | Text Only | Print | Product List | Glossary On
Versions: 1 2 3 4 5 6 7 8 9 10 11 12 13 14 15 16 17 18 19 20 21 22 23 24 25 26 27 28 29 30 31 32 33 34 35 36 37 38 39 40 41 42 43 44 45 46 47 48 49 50
048
ASUS44 KSJT 132011
RWRSJT
WEST CENTRAL TEXAS REGIONAL WEATHER ROUNDUP
NATIONAL WEATHER SERVICE SAN ANGELO TX
200 PM CST SAT FEB 13 2016

NOTE: "FAIR" INDICATES FEW OR NO CLOUDS BELOW 12,000 FEET WITH NO
SIGNIFICANT WEATHER AND/OR OBSTRUCTIONS TO VISIBILITY.

TXZ049-054-064>066-071>073-076>078-098-099-113-114-127-128-139-140-
154-155-168>170-132100
...LOCATIONS ACROSS WEST CENTRAL TEXAS...

CITY           SKY/WX    TMP DP  RH WIND       PRES   REMARKS
SAN ANGELO     SUNNY     76  45  33 S17G23    30.17F
ABILENE        SUNNY     72  48  42 S18G25    30.18F
DYESS AFB      SUNNY     72  48  42 S18       30.17F
JUNCTION       SUNNY     77  34  21 SW14G21   30.20F
SWEETWATER     SUNNY     71  41  33 S22       30.20F
BROWNWOOD      SUNNY     72  45  37 S17       30.22F
COLEMAN        CLEAR     71  45  38 S13G20    30.21F
SONORA         SUNNY     75  45  33 S14       30.24F
OZONA          FAIR      73  43  33 S20       30.22F
BRADY          NOT AVBL
$$

TEXAS PANHANDLE/OKLAHOMA PANHANDLE

CITY           SKY/WX    TMP DP  RH WIND       PRES   REMARKS
AMARILLO       SUNNY     62  35  36 S30       30.09F
BORGER         SUNNY     65  35  33 S21G37    30.06F
CANADIAN       SUNNY     58  33  39 S18G26    30.11F
DALHART        SUNNY     71  26  18 SW18G28   30.04F
DUMAS          CLEAR     67  32  27 SW24G33   30.04F
GUYMON         NOT AVBL
HEREFORD       NOT AVBL
PAMPA          CLEAR     61  36  38 S21G28    30.09F
PERRYTON       SUNNY     60  35  39 S21G31    30.05F
$$

SOUTHERN PANHANDLE/SOUTH PLAINS/ROLLING PLAINS

CITY           SKY/WX    TMP DP  RH WIND       PRES   REMARKS
LUBBOCK        PTSUNNY   69  37  30 S18       30.15F
SNYDER           N/A     68  43  39 S15G21    30.18F
CHILDRESS      SUNNY     59  34  39 S10       30.17F
SEMINOLE       PTCLDY    66  37  33 S9        30.17F
$$

PERMIAN BASIN

CITY           SKY/WX    TMP DP  RH WIND       PRES   REMARKS
MIDLAND        CLOUDY    74  41  30 S17       30.15F
ODESSA         SUNNY     72  36  26 S13G21    30.16F
WINK           SUNNY     71  31  22 S10       30.14F
$$

FAR WEST/SOUTHWEST MOUNTAINS/TRANS PECOS

CITY           SKY/WX    TMP DP  RH WIND       PRES   REMARKS
ALPINE         CLEAR     75  16  11 S13G24    30.26F
DRYDEN           N/A     73  42  32 S14G21    30.17F
EL PASO        MOSUNNY   69  12  11 S6        30.16F
FORT STOCKTON  SUNNY     75  33  21 VRB5      30.15F
GUADALUPE PASS SUNNY     70  15  12 SW18G25   30.23F
MARFA          SUNNY     73  17  12 S17G23    30.24F
PECOS          CLEAR     68  32  25 E6        30.15F
$$

DALLAS/FORT WORTH METROPLEX

CITY           SKY/WX    TMP DP  RH WIND       PRES   REMARKS
DFW AIRPORT    MOSUNNY   63  37  38 SE9G17    30.26F
FTW MEACHAM    SUNNY     64  39  39 SE14      30.25F
DAL-EXECUTIVE  SUNNY     63  37  38 E13       30.26F
GRAND PRAIRIE  SUNNY     63  37  39 SE12      30.28F
ADDISON        SUNNY     63  39  42 E12G17    30.29
MESQUITE       CLEAR     63  36  36 E9        30.29F
LANCASTER      CLEAR     63  34  33 E12G17    30.29F
$$

NORTH CENTRAL TEXAS

CITY           SKY/WX    TMP DP  RH WIND       PRES   REMARKS
SHRMAN/DENISON CLEAR     60  34  38 SE10G18   30.30F
GAINESVILLE    SUNNY     59  36  43 SE13      30.28F
BRIDGEPORT     CLEAR     63  40  43 S9        30.27F
DENTON         SUNNY     61  36  39 SE9       30.26F
WAXAHACHIE     CLEAR     64  41  43 SE7       30.28F
GRANBURY       CLEAR     67  42  38 SE9       30.25F
$$

WESTERN NORTH TEXAS

CITY           SKY/WX    TMP DP  RH WIND       PRES   REMARKS
WICHITA FALLS  SUNNY     61  35  37 S15G21    30.22F
VERNON         CLEAR     57  27  31 SE10      30.22F
BRECKENRIDGE   CLEAR     71  41  34 S12G18    30.20F
COMANCHE       SUNNY     73  49  44 S9G18     30.22F
$$

CENTRAL AND SOUTH CENTRAL TEXAS

CITY           SKY/WX    TMP DP  RH WIND       PRES   REMARKS
AUSTIN/BERGSTM PTSUNNY   71  54  54 S13       30.26F
WACO           MOSUNNY   70  48  45 S8        30.25F
HILLSBORO      CLEAR     68  41  37 SE13G18   30.26F
TEMPLE         SUNNY     70  53  54 S13G18    30.26F
KILLEEN-GRAY   SUNNY     72  50  46 S12       30.23F
FORT HOOD      SUNNY     71  49  45 S13       30.23F
GEORGETOWN     SUNNY     73  52  46 S16G24    30.25F
LAGO VISTA     FAIR      74  49  41 S8G17     30.26F
SAN MARCOS     PTSUNNY   73  55  53 MISG      30.28F
NEW BRAUNFELS  MOSUNNY   74  53  48 S9G20     30.25F
RANDOLPH AFB   MOSUNNY   71  53  53 S12       30.25F
SAN ANTONIO    MOSUNNY   71  53  52 S9        30.26F
STINSON        SUNNY     73  52  47 S9        30.24F
PLEASANTON     NOT AVBL
LA GRANGE      CLOUDY    72  58  63 S9        30.26F
GIDDINGS       MOCLDY    70  55  60 SW10      30.31F
$$

EAST TEXAS

CITY           SKY/WX    TMP DP  RH WIND       PRES   REMARKS
PARIS          SUNNY     55  30  38 SE10G21   30.34F
CLARKSVILLE    NOT AVBL
TYLER          SUNNY     62  34  35 E9        30.32F
LONGVIEW       SUNNY     58  34  40 E9        30.34F
PALESTINE      PTCLDY    64  38  38 SE6       30.31F
NACOGDOCHES    SUNNY     63  37  39 E9        30.33F
$$

TEXAS HILL COUNTRY AND EDWARDS PLATEAU

CITY           SKY/WX    TMP DP  RH WIND       PRES   REMARKS
LLANO          CLEAR     75  48  38 S8        30.25F
HORSESHOE BAY  FAIR      75  51  42 S10       30.25F
KERRVILLE      SUNNY     72  50  46 S15       30.26F
FREDERICKSBRG  SUNNY     72  41  33 SW10      30.24F
ROCKSPRINGS    CLEAR     72  41  33 SE14      30.25F
HONDO          SUNNY     72  51  47 S8G17     30.27F
UVALDE         CLEAR     70  51  51 SE9       30.24F
DEL RIO        SUNNY     77  47  34 SE16G24   30.18F
$$

SOUTHEAST TEXAS

CITY           SKY/WX    TMP DP  RH WIND       PRES   REMARKS
COLLEGE STN    CLOUDY    69  55  60 S7        30.27F
CALDWELL       CLOUDY    68  55  64 S7        30.30F
CROCKETT       MOCLDY    64  39  39 E6        30.33F
BRENHAM        CLOUDY    73  57  57 SE7       30.28F
HUNTSVILLE     PTSUNNY   70  48  45 SE6       30.28F
CONROE         CLOUDY    68  46  45 S12       30.30F
HOUSTON BUSH   PTSUNNY   67  49  52 SE12      30.31F
HOUSTON HOBBY  MOSUNNY   67  52  58 E10       30.31F
PERLAND        PTSUNNY   68  53  58 E15       30.32F
WHARTON        MOCLDY    74  56  54 S7        30.28F
$$

THE UPPER TEXAS COAST

CITY           SKY/WX    TMP DP  RH WIND       PRES   REMARKS
ORANGE         CLOUDY    64  37  36 E7        30.35F
PORT ARTHUR    CLOUDY    64  43  46 SE13      30.33F
GALVESTON      PTSUNNY   63  54  72 E17       30.32F
ANGLETON         N/A     69  60  73 MISG      30.30F
BAY CITY       CLOUDY    73  58  59 SE14      30.29F
$$

TEXAS COASTAL BEND, RIO GRANDE PLAINS DEEP SOUTH TEXAS

CITY           SKY/WX    TMP DP  RH WIND       PRES   REMARKS
VICTORIA       MOSUNNY   73  56  54 S12       30.28F
BEEVILLE       FAIR      77  53  43 S13       30.26F
ROCKPORT       SUNNY     73  59  61 E12       30.28F
PORT ARANSAS   PTCLDY    68  60  75 E8        30.28F
PORT LAVACA    PTCLDY    71  60  69 E14       30.30F
CORPUS CHRISTI MOSUNNY   77  51  40 SE13G22   30.26F
KINGSVILLE NAS MOSUNNY   77  57  50 SE14      30.24F
COTULLA        SUNNY     79  47  32 S9G20     30.22F
LAREDO         SUNNY     80  48  32 SE10      30.20F
BROWNSVILLE    MOSUNNY   76  57  51 SE15G21   30.26F
PORT ISABEL    MOSUNNY   74  58  57 E18       30.25F
HEBBRONVILLE   NOT AVBL
MCALLEN        MOSUNNY   81  53  37 SE7G20    30.22F
WESLACO        MOSUNNY   80  52  37 SE12G17   30.22F
FALFURRIAS     PTCLDY    79  51  37 SE13      30.23F
EDINBURG       PTCLDY    81  50  33 E12       30.23F
$$




USA.gov is the U.S. government's official web portal to all federal, state and local government web resources and services.